Weather History for Pontiac, MI

Change the Weather History Date:

Wednesday, August 7, 2013

  Actual Average Record
Temperature  
Mean Temperature 72 °F -  
Max Temperature 81 °F 78 °F 96 °F (2001)
Min Temperature 62 °F 59 °F 52 °F (2002)
Cooling Degree Days 6    
Growing Degree Days 22 (Base 50)    
Moisture  
Dew Point 65 °F    
Average Humidity 82    
Maximum Humidity 94    
Minimum Humidity 58    
Precipitation  
Precipitation 0.16 in - - ()
Sea Level Pressure  
Sea Level Pressure 29.87 in    
Wind  
Wind Speed 5 mph (SW)    
Max Wind Speed 13 mph    
Max Gust Speed 28 mph    
Visibility 8 miles    
Events Rain , Thunderstorm    
Averages and records for this station are not official NWS values.
T = Trace of Precipitation, MM = Missing Value Source: NWS Daily Summary

Daily Weather History Graph

Daily Weather History Graph

Search for Another Location

Airport:

Trip Planner

Search our weather history database for the weather conditions in past years. The results will help you decide how hot, cold, wet, or windy it might be!

Date:

Astronomy

Aug. 07, 2013 Rise Set
Actual Time 6:31 AM EDT 8:46 PM EDT
Civil Twilight 6:00 AM EDT 9:17 PM EDT
Nautical Twilight 5:21 AM EDT 9:55 PM EDT
Astronomical Twilight 4:39 AM EDT 10:38 PM EDT
Moon 7:22 AM EDT (8/7) 8:49 PM EDT (8/7)
Length of Visible Light 15h 16m
Length of Day
14h 14m
New Moon, 1% of the Moon is Illuminated
Aug 7
New Moon
Aug 14
First Quarter
Aug 20
Full
Aug 28
Last Quarter
Sep 5
New

Hourly Weather History & Observations

Time (EDT) Temp. Heat Index Dew Point Humidity Pressure Visibility Wind Dir Wind Speed Gust Speed Precip Events Conditions
12:53 AM 68.0 °F - 64.0 °F 87% 29.91 in 10.0 mi South 3.5 mph - N/A   Clear
1:53 AM 66.9 °F - 64.0 °F 90% 29.88 in 9.0 mi South 4.6 mph - N/A   Clear
2:53 AM 66.9 °F - 63.0 °F 87% 29.88 in 8.0 mi Calm Calm - N/A   Clear
3:53 AM 64.9 °F - 63.0 °F 93% 29.86 in 6.0 mi Calm Calm - N/A   Clear
4:53 AM 66.0 °F - 63.0 °F 90% 29.85 in 6.0 mi SSE 3.5 mph - N/A   Clear
5:33 AM 66.2 °F - 64.4 °F 94% 29.86 in 5.0 mi SSE 3.5 mph - N/A   Mostly Cloudy
5:48 AM 66.2 °F - 64.4 °F 94% 29.87 in 5.0 mi South 4.6 mph - N/A   Mostly Cloudy
5:53 AM 66.0 °F - 64.0 °F 93% 29.86 in 5.0 mi South 3.5 mph - N/A   Mostly Cloudy
6:07 AM 66.2 °F - 64.4 °F 94% 29.86 in 3.0 mi South 4.6 mph - N/A   Mostly Cloudy
6:53 AM 66.0 °F - 64.0 °F 93% 29.85 in 3.0 mi South 5.8 mph - N/A   Mostly Cloudy
7:00 AM 66.2 °F - 64.4 °F 94% 29.87 in 3.0 mi SSW 4.6 mph - N/A   Mostly Cloudy
7:14 AM 66.2 °F - 64.4 °F 94% 29.89 in 2.5 mi WNW 5.8 mph - N/A   Mostly Cloudy
7:23 AM 66.2 °F - 62.6 °F 88% 29.92 in 5.0 mi NNW 12.7 mph 27.6 mph 0.00 in Rain Light Rain
7:37 AM 64.4 °F - 60.8 °F 88% 29.93 in 10.0 mi NW 11.5 mph 18.4 mph 0.00 in Rain Light Rain
7:53 AM 63.0 °F - 60.1 °F 90% 29.91 in 2.0 mi NNW 6.9 mph - 0.11 in Rain Rain
8:03 AM 62.6 °F - 60.8 °F 94% 29.93 in 3.0 mi WNW 3.5 mph - 0.03 in Rain Rain
8:53 AM 64.9 °F - 62.1 °F 90% 29.89 in 10.0 mi Calm Calm - 0.04 in   Mostly Cloudy
9:53 AM 66.9 °F - 63.0 °F 87% 29.89 in 10.0 mi Calm Calm - N/A   Overcast
10:53 AM 66.9 °F - 63.0 °F 87% 29.86 in 10.0 mi South 9.2 mph - 0.01 in   Mostly Cloudy
11:53 AM 71.1 °F - 64.0 °F 78% 29.84 in 10.0 mi SW 4.6 mph - N/A   Mostly Cloudy
12:53 PM 75.9 °F - 61.0 °F 60% 29.83 in 10.0 mi SW 11.5 mph - N/A   Mostly Cloudy
1:53 PM 78.1 °F - 63.0 °F 60% 29.83 in 10.0 mi SW 9.2 mph - N/A   Mostly Cloudy
2:53 PM 77.0 °F - 64.0 °F 64% 29.85 in 10.0 mi WSW 10.4 mph 19.6 mph N/A   Mostly Cloudy
3:53 PM 78.1 °F - 64.0 °F 62% 29.84 in 10.0 mi SW 9.2 mph 16.1 mph N/A   Mostly Cloudy
4:53 PM 81.0 °F 82.7 °F 64.9 °F 58% 29.84 in 10.0 mi WSW 9.2 mph - N/A   Scattered Clouds
5:53 PM 81.0 °F 83.3 °F 66.9 °F 62% 29.83 in 10.0 mi SW 9.2 mph - N/A   Mostly Cloudy
6:53 PM 80.1 °F 82.7 °F 68.0 °F 67% 29.83 in 10.0 mi SW 6.9 mph - N/A   Mostly Cloudy
7:53 PM 80.1 °F 82.9 °F 69.1 °F 69% 29.83 in 10.0 mi SW 9.2 mph - N/A   Mostly Cloudy
8:53 PM 77.0 °F - 69.1 °F 76% 29.84 in 10.0 mi SW 6.9 mph - N/A   Mostly Cloudy
9:37 PM 75.2 °F - 69.8 °F 83% 29.87 in 10.0 mi SW 6.9 mph - N/A Thunderstorm Thunderstorm
9:53 PM 75.9 °F - 70.0 °F 82% 29.86 in 10.0 mi SW 6.9 mph - N/A Thunderstorm Thunderstorm
10:44 PM 73.4 °F - 69.8 °F 88% 29.91 in 10.0 mi North 4.6 mph - N/A   Mostly Cloudy
10:53 PM 73.9 °F - 68.0 °F 82% 29.91 in 10.0 mi NNE 5.8 mph - N/A   Mostly Cloudy
11:53 PM 72.0 °F - 66.9 °F 84% 29.89 in 10.0 mi Calm Calm - N/A   Scattered Clouds